UWE-3

Last updated on Wed Mar 11 2026 00:03:15 GMT+0000 (Coordinated Universal Time)

1 39446U 13066AG 26069.39850048 .00006511 00000+0 56941-3 0 9992 2 39446 97.8590 24.9330 0048419 289.6976 69.9024 14.96190336662804
UTC large
Height (km)
Speed (km/s)
/
Latitude / Longitude
Inclination (degrees)
Orbital Period (minutes)
Azimuth
Elevation
Range (km)
Doppler Factor

Next 0 passes for location: London (51.5072 / 0.1276)

Sorry there are no passes over London.